Voltar ao catálogo

STARLINK-37946

AtivoComunicaçõesSSO
NORAD 69672·PAYLOAD·🇺🇸 United States

Lançado Jun 21, 2026 de Vandenberg Space Force Base

Loading…

Próximas Passagens (próximas 24 horas)

TLE

AtualizadoSource: CelesTrak SupGP

Época: Sep 15, 2026, 03:59 UTC

1 69672C 26143Z   26258.16645833 -.00046848  00000+0 -14543-2 0  2583
2 69672  97.2831 301.4840 0001112 105.1459  71.5525 15.33462983    12

Acompanhe STARLINK-37946 em tempo real com AllMySat

Download on the App Store